FW0655 Weather Reports


time (UTC)temp
C
wind
direction
speed
KPH
gust
KPH
rain 1hr
cm
rain 24hr
cm
rain mn
cm
humidity
%
barometer
mb
20260504081541 3 162 0.0 1.6 0.00 0.00 0.00 77 1010.4
20260504050018 6 161 0.0 1.6 0.00 0.00 0.00 72 1010.6
20260504044517 6 161 0.0 4.8 0.00 0.00 0.00 71 1010.5
20260504043015 7 158 1.6 4.8 0.00 0.00 0.00 71 1010.5
20260504041533 7 158 1.6 3.2 0.00 0.00 0.00 70 1010.5
20260504040010 7 158 0.0 3.2 0.00 0.00 0.00 69 1010.5
20260504034505 7 158 0.0 3.2 0.00 0.00 0.00 68 1010.6
20260504033007 8 158 0.0 3.2 0.00 0.00 0.00 67 1010.6
20260504031507 8 158 0.0 3.2 0.00 0.00 0.00 67 1010.5
20260504030003 8 158 0.0 1.6 0.00 0.00 0.00 65 1010.6
20260504024503 8 158 1.6 4.8 0.00 0.00 0.00 64 1010.6
20260504023002 8 114 1.6 6.4 0.00 0.00 0.00 61 1010.8
20260504021500 9 192 1.6 6.4 0.00 0.00 0.00 62 1010.6
20260504020132 10 306 3.2 4.8 0.00 0.00 0.00 59 1010.7
20260504014602 10 306 0.0 4.8 0.00 0.00 0.00 57 1010.7
20260504013130 10 306 1.6 3.2 0.00 0.00 0.00 54 1010.5
20260504011559 11 306 1.6 4.8 0.00 0.00 0.00 52 1010.5
20260504010101 11 307 1.6 3.2 0.00 0.00 0.00 51 1010.3
20260504004558 12 307 1.6 3.2 0.00 0.00 0.00 46 1010.3
20260504003057 12 331 3.2 6.4 0.00 0.00 0.00 44 1010.1
20260504001559 12 205 1.6 4.8 0.00 0.00 0.00 44 1009.9
20260504000101 12 212 3.2 4.8 0.00 0.00 0.00 43 1009.8
20260503234556 12 216 1.6 6.4 0.00 0.00 0.00 42 1009.6
20260503233055 13 225 0.0 6.4 0.00 0.00 0.00 41 1009.5
20260503231554 13 221 1.6 6.4 0.00 0.00 0.00 41 1009.5
20260503230058 13 251 3.2 6.4 0.00 0.00 0.00 40 1009.5
20260503224601 13 229 0.0 6.4 0.00 0.00 0.00 41 1009.7
20260503223053 12 229 1.6 6.4 0.00 0.00 0.00 40 1009.7
20260503221600 12 211 1.6 8.0 0.00 0.00 0.00 40 1009.7
20260503220050 12 248 1.6 6.4 0.00 0.00 0.00 41 1009.9
20260503214550 12 355 3.2 12.9 0.00 0.00 0.00 42 1010.1
20260503213049 12 327 1.6 9.7 0.00 0.00 0.00 42 1010.1
20260503211550 12 317 3.2 11.3 0.00 0.00 0.00 42 1010.0
20260503210047 12 282 8.0 14.5 0.00 0.00 0.00 42 1010.1
20260503204603 12 292 4.8 17.7 0.00 0.00 0.00 44 1010.3
20260503203047 12 304 8.0 17.7 0.00 0.00 0.00 41 1010.3
20260503201545 12 265 4.8 16.1 0.00 0.00 0.00 39 1010.2
20260503200045 12 300 6.4 17.7 0.00 0.00 0.00 36 1010.2
20260503194546 12 288 3.2 14.5 0.00 0.00 0.00 37 1010.2
20260503193047 12 345 4.8 12.9 0.00 0.00 0.00 35 1010.5
20260503191604 12 29 6.4 24.1 0.00 0.00 0.00 37 1010.5
20260503190044 12 312 12.9 22.5 0.00 0.00 0.00 35 1010.7
20260503184539 13 311 11.3 17.7 0.00 0.00 0.00 33 1010.8
20260503183037 12 269 4.8 25.7 0.00 0.00 0.00 34 1010.9
20260503181545 12 236 3.2 16.1 0.00 0.00 0.00 38 1011.1
20260503180033 12 281 3.2 27.4 0.00 0.00 0.00 35 1011.2
20260503174530 11 315 6.4 16.1 0.00 0.00 0.00 37 1011.5
20260503173027 10 296 6.4 19.3 0.00 0.00 0.00 38 1011.8
20260503171524 10 296 6.4 14.5 0.00 0.00 0.00 40 1012.1